Weather History for KINJ - February, 2014

Change the Weather History Date:

Tuesday, February 18, 2014

  Actual Average (KACT) Record (KACT)
Temperature  
Mean Temperature 64 °F 51 °F  
Max Temperature 78 °F 62 °F 86 °F (1986)
Min Temperature 50 °F 41 °F 12 °F (1910)
Degree Days  
Heating Degree Days 1 14  
Month to date heating degree days 278  
Since 1 July heating degree days 1686  
Cooling Degree Days 0 0  
Month to date cooling degree days 0  
Year to date cooling degree days 3  
Growing Degree Days 14 (Base 50)    
Moisture  
Dew Point 44 °F    
Average Humidity 49    
Maximum Humidity 82    
Minimum Humidity 34    
Precipitation  
Precipitation 0.00 in 0.10 in 1.68 in (2012)
Month to date precipitation 1.63  
Year to date precipitation 3.75  
Snow  
Snow 0.00 in 0.00 in 0.00 in ()
Month to date snowfall 0.3  
Since 1 July snowfall 0.7  
Snow Depth -    
Sea Level Pressure  
Sea Level Pressure 29.98 in    
Wind  
Wind Speed 10 mph (SSE)    
Max Wind Speed 23 mph    
Max Gust Speed 26 mph    
Visibility 10 miles    
Events      
T = Trace of Precipitation, MM = Missing Value Source: NWS Daily Summary

Daily Weather History Graph

Daily Weather History Graph

Search for Another Location

Airport or City:

Trip Planner

Search our weather history database for the weather conditions in past years. The results will help you decide how hot, cold, wet, or windy it might be!

Date:

Astronomy

Feb. 18, 2014 Rise Set
Actual Time 7:07 AM CST 6:17 PM CST
Civil Twilight 6:42 AM CST 6:42 PM CST
Nautical Twilight 6:14 AM CST 7:10 PM CST
Astronomical Twilight 5:45 AM CST 7:39 PM CST
Moon 9:55 PM CST (2/18) 8:55 AM CST (2/18)
Length of Visible Light 11h 59m
Length of Day
11h 09m
Waning Gibbous, 87% of the Moon is Illuminated
Feb 18
Waning Gibbous
Feb 22
Last Quarter
Mar 1
New
Mar 8
First Quarter
Mar 16
Full

Hourly Weather History & Observations

Time (CST) Temp. Dew Point Humidity Pressure Visibility Wind Dir Wind Speed Gust Speed Precip Events Conditions
12:15 AM 54.0 °F 26.6 °F 35% 30.12 in 10.0 mi NE 6.9 mph - N/A   Clear
12:35 AM 52.9 °F 26.8 °F 36% 30.12 in 10.0 mi NE 5.8 mph - N/A   Clear
12:55 AM 53.8 °F 26.6 °F 35% 30.12 in 10.0 mi NE 4.6 mph - N/A   Clear
1:15 AM 52.9 °F 26.4 °F 36% 30.12 in 10.0 mi NE 4.6 mph - N/A   Clear
1:35 AM 52.7 °F 26.6 °F 36% 30.11 in 10.0 mi NE 5.8 mph - N/A   Clear
1:55 AM 52.7 °F 26.8 °F 37% 30.11 in 10.0 mi ENE 5.8 mph - N/A   Clear
2:15 AM 52.7 °F 27.0 °F 37% 30.10 in 10.0 mi ENE 3.5 mph - N/A   Clear
2:35 AM 52.2 °F 28.4 °F 40% 30.09 in 10.0 mi ENE 4.6 mph - N/A   Clear
2:55 AM 53.2 °F 28.0 °F 38% 30.08 in 10.0 mi East 8.1 mph - N/A   Clear
3:15 AM 53.6 °F 27.5 °F 37% 30.08 in 10.0 mi East 6.9 mph - N/A   Clear
3:35 AM 53.6 °F 27.9 °F 37% 30.07 in 10.0 mi East 9.2 mph - N/A   Clear
3:55 AM 53.8 °F 27.5 °F 36% 30.05 in 10.0 mi East 11.5 mph - N/A   Clear
4:15 AM 54.0 °F 27.9 °F 37% 30.05 in 10.0 mi East 11.5 mph - N/A   Clear
4:35 AM 54.5 °F 28.2 °F 36% 30.04 in 10.0 mi East 11.5 mph - N/A   Clear
4:55 AM 54.5 °F 28.0 °F 36% 30.03 in 10.0 mi East 12.7 mph - N/A   Clear
5:15 AM 55.2 °F 28.4 °F 36% 30.03 in 10.0 mi East 11.5 mph - N/A   Clear
5:35 AM 55.4 °F 28.4 °F 36% 30.03 in 10.0 mi East 10.4 mph - N/A   Clear
5:55 AM 54.7 °F 28.4 °F 36% 30.03 in 10.0 mi East 12.7 mph - N/A   Clear
6:15 AM 55.4 °F 28.4 °F 36% 30.03 in 10.0 mi East 11.5 mph - N/A   Clear
6:35 AM 55.4 °F 28.4 °F 36% 30.03 in 10.0 mi East 9.2 mph - N/A   Clear
6:55 AM 55.4 °F 28.4 °F 36% 30.03 in 10.0 mi East 9.2 mph - N/A   Clear
7:15 AM 54.0 °F 28.4 °F 37% 30.04 in 10.0 mi Calm Calm - N/A   Clear
7:35 AM 52.5 °F 28.4 °F 39% 30.04 in 10.0 mi Calm Calm - N/A   Clear
7:55 AM 50.5 °F 30.2 °F 46% 30.04 in 10.0 mi Calm Calm - N/A   Clear
8:15 AM 51.4 °F 32.0 °F 47% 30.03 in 10.0 mi Calm Calm - N/A   Clear
8:35 AM 52.5 °F 33.3 °F 48% 30.03 in 10.0 mi SSE 4.6 mph - N/A   Clear
8:55 AM 57.0 °F 33.3 °F 41% 30.03 in 10.0 mi SSE 6.9 mph - N/A   Clear
9:15 AM 60.1 °F 32.0 °F 35% 30.03 in 10.0 mi SSE 10.4 mph - N/A   Clear
9:35 AM 61.7 °F 33.1 °F 34% 30.02 in 10.0 mi South 12.7 mph - N/A   Clear
9:55 AM 63.3 °F 36.1 °F 36% 30.03 in 10.0 mi South 11.5 mph - N/A   Clear
10:15 AM 64.6 °F 41.2 °F 42% 30.03 in 10.0 mi South 12.7 mph - N/A   Clear
10:35 AM 65.8 °F 43.7 °F 45% 30.03 in 10.0 mi SSW 13.8 mph - N/A   Clear
10:55 AM 66.7 °F 48.4 °F 52% 30.02 in 10.0 mi South 13.8 mph - N/A   Clear
11:15 AM 69.8 °F 50.9 °F 51% 30.02 in 10.0 mi SSW 15.0 mph - N/A   Clear
11:35 AM 70.5 °F 52.0 °F 52% 30.02 in 10.0 mi South 13.8 mph - N/A   Clear
11:55 AM 71.6 °F 51.8 °F 50% 29.99 in 10.0 mi South 16.1 mph - N/A   Clear
12:15 PM 73.8 °F 55.2 °F 52% 29.99 in 10.0 mi SSW 18.4 mph 23.0 mph N/A   Clear
12:35 PM 74.7 °F 56.1 °F 52% 29.98 in 10.0 mi SSW 17.3 mph 25.3 mph N/A   Clear
12:55 PM 75.7 °F 56.3 °F 51% 29.97 in 10.0 mi South 17.3 mph 21.9 mph N/A   Clear
1:15 PM 75.9 °F 56.3 °F 50% 29.95 in 10.0 mi South 18.4 mph 21.9 mph N/A   Clear
1:35 PM 75.9 °F 56.3 °F 50% 29.93 in 10.0 mi South 16.1 mph - N/A   Clear
1:55 PM 76.6 °F 55.6 °F 48% 29.93 in 10.0 mi South 17.3 mph - N/A   Clear
2:15 PM 77.4 °F 56.1 °F 48% 29.92 in 10.0 mi South 16.1 mph 23.0 mph N/A   Clear
2:35 PM 77.7 °F 56.5 °F 48% 29.91 in 10.0 mi South 16.1 mph 21.9 mph N/A   Clear
2:55 PM 77.7 °F 57.0 °F 49% 29.90 in 10.0 mi SSW 17.3 mph - N/A   Clear
3:15 PM 77.9 °F 57.6 °F 49% 29.89 in 10.0 mi South 18.4 mph 23.0 mph N/A   Clear
3:35 PM 77.9 °F 57.7 °F 50% 29.88 in 10.0 mi South 18.4 mph 25.3 mph N/A   Clear
3:55 PM 78.3 °F 57.7 °F 49% 29.88 in 10.0 mi South 17.3 mph - N/A   Clear
4:15 PM 77.5 °F 57.9 °F 51% 29.87 in 10.0 mi South 23.0 mph 26.5 mph N/A   Clear
4:35 PM 75.7 °F 58.1 °F 54% 29.87 in 10.0 mi South 19.6 mph 25.3 mph N/A   Clear
4:55 PM 77.0 °F 58.1 °F 52% 29.87 in 10.0 mi South 19.6 mph 26.5 mph N/A   Clear
5:15 PM 76.1 °F 57.6 °F 53% 29.86 in 10.0 mi South 18.4 mph - N/A   Clear
5:35 PM 75.4 °F 57.2 °F 53% 29.87 in 10.0 mi South 17.3 mph 23.0 mph N/A   Clear
5:55 PM 74.5 °F 56.8 °F 54% 29.87 in 10.0 mi South 16.1 mph - N/A   Clear
6:15 PM 73.0 °F 56.7 °F 56% 29.87 in 10.0 mi South 10.4 mph - N/A   Clear
6:35 PM 72.0 °F 56.3 °F 58% 29.88 in 10.0 mi South 11.5 mph - N/A   Clear
6:55 PM 70.3 °F 56.3 °F 61% 29.88 in 10.0 mi South 10.4 mph - N/A   Clear
7:15 PM 69.1 °F 55.6 °F 62% 29.88 in 10.0 mi SSE 10.4 mph - N/A   Clear
7:35 PM 68.0 °F 55.6 °F 64% 29.88 in 10.0 mi SE 6.9 mph - N/A   Clear
7:55 PM 68.2 °F 56.1 °F 65% 29.88 in 10.0 mi SSE 11.5 mph - N/A   Clear
8:15 PM 68.0 °F 56.7 °F 67% 29.89 in 10.0 mi SSE 9.2 mph - N/A   Clear
8:35 PM 68.2 °F 57.2 °F 68% 29.90 in 10.0 mi South 11.5 mph - N/A   Clear
8:55 PM 69.3 °F 57.9 °F 67% 29.90 in 10.0 mi South 11.5 mph - N/A   Clear
9:15 PM 68.4 °F 58.1 °F 70% 29.90 in 10.0 mi South 11.5 mph - N/A   Clear
9:35 PM 68.0 °F 58.3 °F 71% 29.91 in 10.0 mi South 11.5 mph - N/A   Clear
9:55 PM 66.7 °F 58.1 °F 74% 29.92 in 10.0 mi South 10.4 mph - N/A   Clear
10:15 PM 65.7 °F 57.9 °F 76% 29.93 in 10.0 mi South 10.4 mph - N/A   Clear
10:35 PM 64.9 °F 57.9 °F 78% 29.92 in 10.0 mi South 10.4 mph - N/A   Clear
10:55 PM 65.1 °F 58.1 °F 78% 29.91 in 10.0 mi SSE 10.4 mph - N/A   Clear
11:15 PM 64.6 °F 58.3 °F 80% 29.91 in 10.0 mi South 10.4 mph - N/A   Clear
11:55 PM 64.4 °F 58.6 °F 82% 29.92 in 7.0 mi South 10.4 mph - N/A   Clear